Regional Weather Roundup
Issued by NWS

Home | Current Version | Previous Version | Text Only | Print | Product List | Glossary Off
Versions: 1 2 3 4 5 6 7 8 9 10 11 12 13 14 15 16 17 18 19 20 21 22 23 24 25 26 27 28 29 30 31 32 33 34 35 36 37 38 39 40 41 42 43 44 45 46 47 48 49 50

741
ASUS43 KOAX 280402
RWRNE

WEATHER ROUNDUP FOR NEBRASKA
NATIONAL WEATHER SERVICE OMAHA NE
1100 PM CDT THU APR 27 2017

NOTES: SATELLITE DATA IS BEING USED TO AUGMENT CLOUD COVER ABOVE
       12000 FEET.
       "FAIR" INDICATES FEW OR NO CLOUDS BELOW 12,000 FEET WITH NO
       SIGNIFICANT WEATHER AND/OR OBSTRUCTIONS TO VISIBILITY.

  * THESE STATIONS DO NOT REPORT WEATHER SUCH AS RAIN...SNOW OR FOG.

NEZ001>004-019>022-054>056-280500-
NEBRASKA PANHANDLE

CITY           SKY/WX    TMP DP  RH WIND       PRES   REMARKS
SCOTTSBLUFF    CLOUDY    43  39  86 E10       29.61R
ALLIANCE       CLOUDY    42  39  89 E12       29.62R
CHADRON        LGT RAIN  42  39  89 NE13      29.66R
SIDNEY         CLOUDY    40  37  89 E23G29    29.60S WCI  30
$$

NEZ057>060-069>072-079>082-280500-
SOUTHWEST NEBRASKA

CITY           SKY/WX    TMP DP  RH WIND       PRES   REMARKS
NORTH PLATTE   LGT RAIN  45  43  93 E12       29.66R
IMPERIAL       LGT RAIN  43  40  89 E13       29.61R
LEXINGTON      CLOUDY    45  41  87 E10       29.68R
MCCOOK         RAIN      44  43  96 E14       29.64R FOG
OGALLALA       RAIN      44  43  95 E12       29.65R
$$

NEZ005>010-023>029-035>040-094-280500-
NORTH CENTRAL NEBRASKA

CITY           SKY/WX    TMP DP  RH WIND       PRES   REMARKS
VALENTINE      CLOUDY    48  33  56 E9        29.73R
AINSWORTH      DRIZZLE   44  41  87 E9        29.73R
BROKEN BOW     CLOUDY    46  38  73 E6        29.69R
O`NEILL        CLOUDY    42  33  70 E7        29.76R
ORD            CLOUDY    47  38  71 SE7       29.72R
THEDFORD       CLOUDY    46  38  73 E10       29.69S
$$

NEZ041-046>049-061>064-073>077-083>087-280500-
SOUTH CENTRAL NEBRASKA

CITY           SKY/WX    TMP DP  RH WIND       PRES   REMARKS
GRAND ISLAND   CLOUDY    46  44  93 E6        29.73R
AURORA         CLOUDY    46  43  87 SE6       29.73R
HASTINGS       LGT RAIN  47  43  86 SE8       29.72S
HEBRON         CLOUDY    47  45  93 E7        29.72R
HOLDREGE       CLOUDY    45  41  88 E15       29.68R
KEARNEY *      CLOUDY    46  39  76 SE12      29.71R
YORK           CLOUDY    46  41  81 SE6       29.74R
$$

NEZ011>018-030>034-042>045-280500-
NORTHEAST NEBRASKA

CITY           SKY/WX    TMP DP  RH WIND       PRES   REMARKS
NORFOLK        CLOUDY    43  34  70 E5        29.76R
ALBION         CLOUDY    49  36  61 E9        29.76R
BLAIR          CLOUDY    49  36  61 NE9       29.77S
FREMONT        CLOUDY    50  34  54 E3        29.77S
TEKAMAH        CLOUDY    45  35  68 NE7       29.78R
WAYNE          CLEAR     38  34  84 NE5       29.78R WCI  35
$$

NEZ050>053-065>068-078-088>093-280500-
SOUTHEAST NEBRASKA

CITY           SKY/WX    TMP DP  RH WIND       PRES   REMARKS
LINCOLN        CLOUDY    50  42  74 SE3       29.76S
OMAHA EPPLEY   CLOUDY    50  36  58 CALM      29.77R
BEATRICE       CLOUDY    49  47  93 E5        29.74S
FALLS CITY     CLOUDY    49  47  93 NE7       29.73F
NEBRASKA CITY  CLOUDY    51  41  70 S3        29.77S
PLATTSMOUTH    CLOUDY    52  32  47 E3        29.76F
$$

NEZ044-045-051>053-067-280500-
OMAHA AREA

CITY           SKY/WX    TMP DP  RH WIND       PRES   REMARKS
OMAHA EPPLEY   CLOUDY    50  36  58 CALM      29.77R
BLAIR          CLOUDY    49  36  61 NE9       29.77S
FREMONT        CLOUDY    50  34  54 E3        29.77S
MILLARD        CLOUDY    55  38  52 CALM      29.76S
OFFUTT AFB     CLOUDY    51  37  59 NE5       29.76R
PLATTSMOUTH    CLOUDY    52  32  47 E3        29.76F
WAHOO          CLOUDY    48  36  63 NE3       29.76R
$$




USA.gov is the U.S. government's official web portal to all federal, state and local government web resources and services.